Weather Roundup
Issued by NWS Springfield, MO

Home | Current Version | Previous Version | Text Only | Print | Product List | Glossary On
Versions: 1 2 3 4 5 6 7 8 9 10 11 12 13 14 15 16 17 18 19 20 21 22 23 24 25 26 27 28 29 30 31 32 33 34 35 36 37 38 39 40 41 42 43 44 45 46 47 48 49 50
000
NZUS99 KSGF 121807
HRRSGF

HOURLY WEATHER
NATIONAL WEATHER SERVICE SPRINGFIELD MO
1200 PM CST TUE DEC 12 2017

......SGF CWA......

CITY           SKY/WX    TMP DP  RH WIND       PRES   REMARKS
SPRINGFIELD    SUNNY     36  12  37 NW8       30.28F WCI  30
6HR MIN TEMP:  24; 6HR MAX TEMP:  36;

JOPLIN         SUNNY     36  14  40 N6        30.34F WCI  31
6HR MIN TEMP:  23; 6HR MAX TEMP:  36;

WEST PLAINS    SUNNY     39  11  31 NW10G20   30.24F WCI  32
6HR MIN TEMP:  27; 6HR MAX TEMP:  39; 6HR PCP: TRACE;

ROLLA          SUNNY     32  10  40 NW13G20   30.25F WCI  22
6HR MIN TEMP:  23; 6HR MAX TEMP:  32;

OSAGE BEACH    SUNNY     32  12  43 W9        30.30F WCI  24
BRANSON        SUNNY     37  16  41 NW6       30.28F WCI  33

......SURROUNDING SGF CWA......

CITY           SKY/WX    TMP DP  RH WIND       PRES   REMARKS
CHANUTE        SUNNY     39  14  36 NW9       30.35F WCI  33
PARSONS        SUNNY     40  15  36 MISG      30.37F
COFFEYVILLE    SUNNY     41  12  30 NW7       30.38F
EMPORIA        PTSUNNY   41  24  51 NW12      30.32F
GROVE OK       SUNNY     39  19  45 N5        30.36F
ROGERS AR      SUNNY     38  14  37 N7        30.31F WCI  33
SILOAM SPRINGS SUNNY     39  15  37 NW9       30.34F WCI  33
HARRISON AR    SUNNY     39  16  39 MISG      30.27F
NEAR YELLVILLE SUNNY     41  16  36 NW9       30.29F

......KANSAS AND MISSOURI......

CITY           SKY/WX    TMP DP  RH WIND       PRES   REMARKS
KANSAS CTY INT MOSUNNY   32  11  41 W9        30.30F WCI  24
DOWNTOWN KC    SUNNY     34  10  37 W8        30.31F WCI  27
COLUMBIA       MOSUNNY   32   9  38 W12       30.26F WCI  23
SEDALIA        SUNNY     33   9  36 NW8       30.31F WCI  26
ST JOSEPH      SUNNY     31  14  49 W10       30.31F WCI  22
ST LOUIS       MOSUNNY   34  10  37 W12       30.21F WCI  25
SPIRIT OF STL  SUNNY     34   8  33 NW14      30.23F WCI  25
KIRKSVILLE     SUNNY     29  32 100 CALM      30.25F
WICHITA        SUNNY     44  29  55 W7        30.35F
TOPEKA         SUNNY     37  20  50 W8        30.32F WCI  31
OLATHE         SUNNY     32  10  40 W10       30.31F WCI  24

......TENNESSEE......

CITY           SKY/WX    TMP DP  RH WIND       PRES   REMARKS
MEMPHIS        SUNNY     48  27  44 N15G23    30.20F
NASHVILLE      PTSUNNY   42  22  44 NW16G24   30.07F

......ARKANSAS.......

CITY           SKY/WX    TMP DP  RH WIND       PRES   REMARKS
FAYETTEVILLE   SUNNY     41  14  33 N8        30.31F
FT SMITH       SUNNY     47  14  26 W10       30.35F
LITTLE ROCK    SUNNY     51  18  27 NW12      30.26F

......OKLAHOMA.......

CITY           SKY/WX    TMP DP  RH WIND       PRES   REMARKS
TULSA          SUNNY     44  18  35 W8        30.39F
PONCA CITY       N/A     45  26  47 NW10      30.39F
MCALESTER      SUNNY     48  17  29 N8        30.39F
OKLAHOMA CITY  SUNNY     45  25  45 N12       30.41F

......IOWA............

CITY           SKY/WX    TMP DP  RH WIND       PRES   REMARKS
DES MOINES     PTSUNNY   26   7  44 W9        30.23F WCI  17
QUAD CITIES    SUNNY     26   9  48 W13       30.16F WCI  15

......ILLINOIS........

CITY           SKY/WX    TMP DP  RH WIND       PRES   REMARKS
QUINCY         SUNNY     28   6  39 NW14G21   30.22F WCI  17
CHICAGO        MOSUNNY   20   7  57 NW12      30.06F WCI   8



USA.gov is the U.S. government's official web portal to all federal, state and local government web resources and services.